sat.trackr.live / text

‹ back to catalog

STARLINK-3161

NORAD 49422 · 2021-104Q

PAYLOAD ACTIVE UNKNOWN

§ Identity

Operator
Country
US
Launch date
2021-11-13
Launch site
AFETR
Launch vehicle
Mass (kg)
RCS (m²)

Purposes: comms

External: N2YO · Heavens-Above · Gunter

§ Orbital elements

Epoch: 2026-09-20T03:26:17.371968Z

Period
93.79 min
Inclination
53.1611°
Eccentricity
0.0001940
Mean motion
15.35411993 rev/d
Perigee alt
458.4 km
Apogee alt
461.0 km
Semi-major
6,837.8 km
B*
6.8751e-5
RAAN
63.2232°
Arg perigee
91.6744°
Mean anomaly
268.4481°
Rev number
26,815

§ Raw data

STARLINK-31611 49422U 21104Q   26263.14325662  .00002019  00000+0  68751-4 0  99992 49422  53.1611  63.2232 0001940  91.6744 268.4481 15.35411993268159

JSON: /api/v1/satellites/49422 · /tle

For live sub-satellite position, see the globe view (requires WebGL).

§ Visibility from observer

Set your observer location to see the next 7 days of passes ≥ 10°. The values pass through the URL so the page stays shareable.

No JS? Fill the form by hand. The geolocation button needs JavaScript.